ACA2401 KMSP-CYWG

Flight info

Callsign ACA2401
Flight time N/A
Altitude 36000
Route GEP DCT BIPKU NORAK6
Aircraft A320/M-SDE3FGHIRWY/LB1

Departure

Time 2026-05-05 02:52
Airport Minneapolis–Saint Paul International Airport / Wold–Chamberlain Field (KMSP)

Arrival

Time N/A
Airport Winnipeg / James Armstrong Richardson International Airport (CYWG)
Time Latitude Longitude Altitude Speed Heading
2026-05-05 02:24 44.88318 -93.21506 827 ft 0 kts 12°
2026-05-05 02:40 44.88317 -93.21506 827 ft 1 kts 12°
2026-05-05 02:40 44.88302 -93.21511 828 ft 3 kts 16°
2026-05-05 02:40 44.88283 -93.21520 832 ft 3 kts 20°
2026-05-05 02:40 44.88264 -93.21530 831 ft 3 kts 24°
2026-05-05 02:41 44.88245 -93.21543 835 ft 3 kts 27°
2026-05-05 02:41 44.88227 -93.21556 835 ft 3 kts 26°
2026-05-05 02:41 44.88209 -93.21567 827 ft 3 kts
2026-05-05 02:41 44.88195 -93.21568 833 ft 2 kts 317°
2026-05-05 02:42 44.88192 -93.21565 833 ft 0 kts 302°
2026-05-05 02:44 44.88209 -93.21603 832 ft 9 kts 302°
2026-05-05 02:44 44.88254 -93.21704 835 ft 15 kts 302°
2026-05-05 02:44 44.88310 -93.21825 829 ft 10 kts 316°
2026-05-05 02:44 44.88376 -93.21839 838 ft 11 kts 22°
2026-05-05 02:45 44.88434 -93.21776 840 ft 10 kts 46°
2026-05-05 02:45 44.88474 -93.21716 838 ft 8 kts 47°
2026-05-05 02:45 44.88522 -93.21646 842 ft 12 kts 46°
2026-05-05 02:45 44.88582 -93.21562 843 ft 12 kts 41°
2026-05-05 02:46 44.88639 -93.21489 838 ft 10 kts 46°
2026-05-05 02:46 44.88681 -93.21424 837 ft 8 kts 48°
2026-05-05 02:46 44.88721 -93.21363 837 ft 9 kts 44°
2026-05-05 02:46 44.88769 -93.21300 835 ft 10 kts 43°
2026-05-05 02:47 44.88789 -93.21226 834 ft 8 kts 107°
2026-05-05 02:47 44.88759 -93.21155 834 ft 12 kts 122°
2026-05-05 02:47 44.88695 -93.21009 828 ft 22 kts 121°
2026-05-05 02:47 44.88618 -93.20830 831 ft 21 kts 120°
2026-05-05 02:48 44.88544 -93.20656 832 ft 20 kts 122°
2026-05-05 02:48 44.88475 -93.20499 829 ft 18 kts 120°
2026-05-05 02:48 44.88414 -93.20350 830 ft 17 kts 120°
2026-05-05 02:48 44.88357 -93.20224 830 ft 14 kts 123°
2026-05-05 02:49 44.88321 -93.20147 830 ft 14 kts 123°
2026-05-05 02:49 44.88253 -93.19985 828 ft 14 kts 122°
2026-05-05 02:49 44.88204 -93.19872 824 ft 14 kts 121°
2026-05-05 02:49 44.88151 -93.19751 825 ft 15 kts 121°
2026-05-05 02:50 44.88102 -93.19639 825 ft 12 kts 122°
2026-05-05 02:50 44.88060 -93.19541 821 ft 11 kts 114°
2026-05-05 02:50 44.88080 -93.19464 824 ft 8 kts 43°
2026-05-05 02:50 44.88124 -93.19435 825 ft 6 kts
2026-05-05 02:51 44.88152 -93.19464 826 ft 0 kts 300°
2026-05-05 02:52 44.88206 -93.19591 827 ft 47 kts 301°
2026-05-05 02:52 44.88500 -93.20269 831 ft 114 kts 301°
2026-05-05 02:52 44.89009 -93.21431 996 ft 154 kts 301°
2026-05-05 02:52 44.89604 -93.22707 1747 ft 153 kts 312°
2026-05-05 02:53 44.90535 -93.23377 2551 ft 160 kts 347°
2026-05-05 02:53 44.91716 -93.23427 2987 ft 180 kts 358°
2026-05-05 02:53 44.93070 -93.23314 3198 ft 209 kts 359°
2026-05-05 02:53 44.94578 -93.23450 3574 ft 228 kts 340°
2026-05-05 02:54 44.96118 -93.24231 4237 ft 240 kts 337°
2026-05-05 02:54 44.97701 -93.25044 5098 ft 244 kts 337°
2026-05-05 02:54 44.99300 -93.25862 6049 ft 245 kts 336°
2026-05-05 02:54 45.00911 -93.26686 6898 ft 248 kts 336°
2026-05-05 02:55 45.02543 -93.27520 7738 ft 251 kts 336°
2026-05-05 02:55 45.04196 -93.28365 8589 ft 254 kts 335°
2026-05-05 02:55 45.05874 -93.29224 9424 ft 258 kts 335°
2026-05-05 02:55 45.07572 -93.30096 10178 ft 262 kts 335°
2026-05-05 02:56 45.09351 -93.31019 10487 ft 284 kts 335°
2026-05-05 02:56 45.11280 -93.32027 10684 ft 307 kts 335°
2026-05-05 02:56 45.13362 -93.33110 10867 ft 329 kts 335°
2026-05-05 02:56 45.15540 -93.34236 11433 ft 337 kts 335°
2026-05-05 02:57 45.17760 -93.35376 12111 ft 341 kts 335°
2026-05-05 02:57 45.20007 -93.36528 12770 ft 346 kts 335°
2026-05-05 02:57 45.22288 -93.37696 13423 ft 351 kts 335°
2026-05-05 02:57 45.24595 -93.38880 14018 ft 355 kts 335°
2026-05-05 02:58 45.26921 -93.40079 14639 ft 357 kts 334°
2026-05-05 02:58 45.29265 -93.41294 15284 ft 359 kts 333°
2026-05-05 02:58 45.31617 -93.42517 15930 ft 361 kts 332°
2026-05-05 02:58 45.33980 -93.43747 16596 ft 363 kts 332°
2026-05-05 02:59 45.36361 -93.44980 17233 ft 365 kts 332°
2026-05-05 02:59 45.38757 -93.46224 17859 ft 368 kts 331°
2026-05-05 02:59 45.41168 -93.47481 18410 ft 370 kts 331°
2026-05-05 02:59 45.43593 -93.48747 18951 ft 372 kts 330°
2026-05-05 03:00 45.46029 -93.50017 19485 ft 373 kts 330°
2026-05-05 03:00 45.48472 -93.51289 20006 ft 375 kts 329°
2026-05-05 03:00 45.50926 -93.52570 20528 ft 376 kts 329°
2026-05-05 03:00 45.53358 -93.53846 21063 ft 378 kts 329°
2026-05-05 03:01 45.55868 -93.55168 21499 ft 381 kts 329°
2026-05-05 03:01 45.58362 -93.56480 21959 ft 383 kts 329°
2026-05-05 03:01 45.60870 -93.57794 22436 ft 385 kts 328°
2026-05-05 03:01 45.63353 -93.59092 22893 ft 386 kts 328°
2026-05-05 03:02 45.65873 -93.60413 23344 ft 387 kts 328°
2026-05-05 03:02 45.68402 -93.61744 23701 ft 388 kts 327°
2026-05-05 03:02 45.70940 -93.63085 24038 ft 390 kts 327°
2026-05-05 03:02 45.73493 -93.64438 24349 ft 394 kts 329°
2026-05-05 03:03 45.76086 -93.65814 24552 ft 399 kts 329°
2026-05-05 03:03 45.78702 -93.67194 24844 ft 402 kts 329°
2026-05-05 03:03 45.81333 -93.68579 25150 ft 404 kts 329°
2026-05-05 03:03 45.84014 -93.69993 25460 ft 405 kts 328°
2026-05-05 03:04 45.86630 -93.71371 25768 ft 407 kts 328°
2026-05-05 03:04 45.89290 -93.72778 26067 ft 408 kts 328°
2026-05-05 03:04 45.91958 -93.74192 26382 ft 410 kts 329°
2026-05-05 03:04 45.94648 -93.75627 26559 ft 414 kts 329°
2026-05-05 03:05 45.97354 -93.77076 26802 ft 416 kts 329°
2026-05-05 03:05 46.00074 -93.78526 27060 ft 418 kts 328°
2026-05-05 03:05 46.02803 -93.79976 27316 ft 419 kts 328°
2026-05-05 03:05 46.05546 -93.81433 27565 ft 420 kts 328°
2026-05-05 03:06 46.08289 -93.82892 27837 ft 420 kts 328°
2026-05-05 03:06 46.11028 -93.84348 28257 ft 419 kts 329°
2026-05-05 03:06 46.13767 -93.85810 28487 ft 421 kts 329°
2026-05-05 03:06 46.16517 -93.87288 28751 ft 422 kts 329°
2026-05-05 03:07 46.19270 -93.88770 29078 ft 422 kts 329°
2026-05-05 03:07 46.22014 -93.90246 29432 ft 421 kts 329°
2026-05-05 03:07 46.24755 -93.91716 29791 ft 419 kts 328°
2026-05-05 03:07 46.27486 -93.93181 30086 ft 418 kts 328°
2026-05-05 03:08 46.30216 -93.94650 30400 ft 418 kts 329°
2026-05-05 03:08 46.32947 -93.96125 30586 ft 421 kts 330°
2026-05-05 03:08 46.35701 -93.97615 30789 ft 422 kts 330°
2026-05-05 03:08 46.38458 -93.99105 31034 ft 423 kts 330°
2026-05-05 03:09 46.41209 -94.00594 31276 ft 423 kts 330°
2026-05-05 03:09 46.43965 -94.02092 31537 ft 423 kts 331°
2026-05-05 03:09 46.46718 -94.03586 31807 ft 423 kts 331°
2026-05-05 03:09 46.49472 -94.05079 32080 ft 422 kts 331°
2026-05-05 03:10 46.52227 -94.06576 32340 ft 424 kts 332°
2026-05-05 03:10 46.54994 -94.08086 32553 ft 425 kts 332°
2026-05-05 03:10 46.57768 -94.09599 32798 ft 426 kts 332°
2026-05-05 03:10 46.60542 -94.11108 33045 ft 426 kts 333°
2026-05-05 03:11 46.63317 -94.12616 33309 ft 426 kts 333°
2026-05-05 03:11 46.66096 -94.14130 33565 ft 426 kts 333°
2026-05-05 03:11 46.68871 -94.15644 33815 ft 426 kts 333°
2026-05-05 03:11 46.71649 -94.17164 34024 ft 426 kts 333°
2026-05-05 03:12 46.74426 -94.18690 34234 ft 427 kts 333°
2026-05-05 03:12 46.76267 -94.19704 34372 ft 427 kts 333°
2026-05-05 03:12 46.79985 -94.21755 34636 ft 427 kts 333°
2026-05-05 03:12 46.82765 -94.23286 34831 ft 428 kts 333°
2026-05-05 03:13 46.85553 -94.24819 35017 ft 428 kts 333°
2026-05-05 03:13 46.88341 -94.26351 35204 ft 428 kts 333°
2026-05-05 03:13 46.91133 -94.27887 35376 ft 429 kts 333°
2026-05-05 03:13 46.93931 -94.29428 35525 ft 430 kts 333°
2026-05-05 03:14 46.96736 -94.30974 35693 ft 431 kts 333°
2026-05-05 03:14 47.02371 -94.34101 35777 ft 435 kts 333°
2026-05-05 03:15 47.08008 -94.37239 35780 ft 436 kts 333°
2026-05-05 03:15 47.13690 -94.40410 35799 ft 438 kts 334°
2026-05-05 03:16 47.19387 -94.43587 35798 ft 438 kts 334°
2026-05-05 03:16 47.25087 -94.46767 35809 ft 438 kts 334°
2026-05-05 03:17 47.30786 -94.49961 35830 ft 438 kts 334°
2026-05-05 03:17 47.36492 -94.53165 35823 ft 439 kts 334°
2026-05-05 03:18 47.42198 -94.56372 35826 ft 439 kts 334°
2026-05-05 03:18 47.47902 -94.59591 35822 ft 439 kts 334°
2026-05-05 03:19 47.56462 -94.64431 35837 ft 439 kts 334°
2026-05-05 03:19 47.62169 -94.67671 35834 ft 439 kts 334°
2026-05-05 03:20 47.67873 -94.70926 35829 ft 439 kts 334°
2026-05-05 03:20 47.72617 -94.73634 35850 ft 439 kts 334°
2026-05-05 03:21 47.78324 -94.76895 35848 ft 439 kts 334°
2026-05-05 03:21 47.84030 -94.80164 35846 ft 439 kts 334°
2026-05-05 03:22 47.89738 -94.83423 35846 ft 439 kts 334°
2026-05-05 03:22 47.95443 -94.86695 35864 ft 439 kts 334°
2026-05-05 03:23 48.01138 -94.89989 35855 ft 439 kts 334°
2026-05-05 03:23 48.06832 -94.93285 35850 ft 439 kts 334°
2026-05-05 03:24 48.12521 -94.96589 35883 ft 439 kts 334°
2026-05-05 03:24 48.18214 -94.99902 35871 ft 439 kts 334°
2026-05-05 03:25 48.23903 -95.03220 35864 ft 439 kts 334°
2026-05-05 03:25 48.29601 -95.06530 35860 ft 439 kts 334°
2026-05-05 03:26 48.35297 -95.09857 35877 ft 439 kts 335°
2026-05-05 03:26 48.40996 -95.13202 35866 ft 440 kts 335°
2026-05-05 03:27 48.46692 -95.16561 35864 ft 440 kts 335°
2026-05-05 03:27 48.52360 -95.19902 35852 ft 440 kts 335°
2026-05-05 03:28 48.58096 -95.23288 35867 ft 440 kts 335°
2026-05-05 03:28 48.63792 -95.26673 35858 ft 440 kts 335°
2026-05-05 03:29 48.69489 -95.30045 35849 ft 440 kts 335°
2026-05-05 03:29 48.75146 -95.33409 35838 ft 440 kts 335°
2026-05-05 03:30 48.80839 -95.36808 35833 ft 440 kts 335°
2026-05-05 03:30 48.86566 -95.40241 35810 ft 439 kts 335°